Find Starlink 3866

NORAD ID: 52500 Int'l Des: 2022-049 Owner: SPXS Country: US Constellation: starlink operational
LEOCIRCULAR

Current View

Loading 3D Globe...

About Starlink 3866

Description loading...

Upcoming Passes

Passes for default location (London). Set your location on the main map for personalized predictions.

Altitude History

Loading altitude history...

Two-Line Element Set

1 52500U 22049BB 26149.60117381 .00003030 00000-0 20839-3 0 9999
2 52500 53.1992 35.8859 0001275 78.7295 281.3840 15.08843000224748
Epoch: May 29, 2026 • Age: 12 hours

Current Status

Altitude 542.8 km
Velocity 7.60 km/s
Sub-Earth Point 40.62°N, 105.24°W
Launch Date May 6, 2022
Age 4 years
Type internet

Technical Details

Classification Payload
Mass 297.00 kg
Dry Mass 220.00 kg
Total Mass 297.00 kg
Length 0.20 m
Diameter 2.80 m
Span 9.00 m
Shape Box + pan
Manufacturer SPXS
Bus Type Starlink
Phase Status In Orbit
Owner/State SPXS/US

Most Searched